星链-32842 (STARLINK-32842)

导读 | 星芒AI

STARLINK-32842 是 SpaceX 星链计划中的一颗低轨通信卫星,属于第 6 批星链卫星(Group 6-3)。该卫星于 2023 年 9 月发射,运行在约 550 公里的高度,旨在为全球用户提供高速互联网服务。作为星链星座的一部分,它支持宽带通信,提升偏远地区的网络覆盖。该卫星采用 SpaceX 自主设计的可重复使用技术,具备自动避碰功能,有助于降低太空碎片风险。

基本信息
目录编号:
62822
目录名称:
STARLINK-32842
国际标识:
2025-018S
轨道中心:
EARTH
卫星名称:
星链-32842
卫星全名:
星链-32842 (STARLINK-32842)
卫星状态:
在轨 (已飞行287 天)
发射日期:
2025-01-24 UTC
国别 :
美国 (US)
星等 :
--
轨道信息
数据来源 国际轨道数据
星历时间: 2025-11-07T07:49:45+0800
23小时前
查看轨道信息
半长轴: 6853.256km
偏心率: 0.0000445
轨道倾角: 53.162°
近地点辐角 30.003°
升交点赤经 159.464°
平近点角 330.100°
近地点: 474.816km
远地点: 475.426km
周期: 94.103分钟
每日圈数: 15.302325
详细信息
固有亮度:
5
最大亮度:
2.5
卫星平台:
Starlink V1.0
覆盖范围:
全球
运营商:
太空探索技术公司
运营商所在国:
美国
制造商(研发单位):
太空探索技术公司
制造商所在国:
美国
使用方式:
暂无
卫星简介
Starlink 计划是 SpaceX 推出的全球卫星互联网项目,通过发射低轨道卫星,为全球尤其是偏远地区提供高速、低延迟的互联网服务。自 2019 年起,Starlink 已部署数千颗卫星,旨在缩小全球数字鸿沟,推动互联网普及。该项目还为军事、航空等行业提供通信支持,带来广泛经济效益。
2D轨道图
3D轨道图
轨道高度分析图
轨道倾角分析图
轨道综合分析图
查看轨道综合分析图